GW4076 Weather Reports


Display with metric or nautical units.
time (UTC)temp
F
wind
direction
speed
MPH
gust
MPH
rain 1hr
in
rain 24hr
in
rain mn
in
humidity
%
barometer
mb
20260506001609 74 161 0.0 4.0 0.00 0.00 0.00 36 1008.8
20260506001042 74 161 1.0 4.0 0.00 0.00 0.00 36 1008.8
20260506000542 74 161 0.0 4.0 0.00 0.00 0.00 37 1008.7
20260506000051 74 161 0.0 5.0 0.00 0.00 0.00 37 1008.6
20260505235543 75 161 1.0 5.0 0.00 0.00 0.00 36 1008.5
20260505235046 75 161 1.0 5.0 0.00 0.00 0.00 37 1008.5
20260505234551 75 161 1.0 5.0 0.00 0.00 0.00 36 1008.6
20260505234043 76 161 1.0 4.0 0.00 0.00 0.00 37 1008.4
20260505233546 76 184 1.0 8.0 0.00 0.00 0.00 36 1008.5
20260505233055 76 184 1.0 8.0 0.00 0.00 0.00 36 1008.5
20260505232543 76 165 1.0 6.0 0.00 0.00 0.00 36 1008.5
20260505232043 77 157 1.0 6.0 0.00 0.00 0.00 34 1008.6
20260505231555 77 204 2.0 6.0 0.00 0.00 0.00 35 1008.5
20260505231046 77 164 1.0 7.0 0.00 0.00 0.00 35 1008.5
20260505230544 77 169 2.0 8.0 0.00 0.00 0.00 35 1008.4
20260505225542 78 183 2.0 8.0 0.00 0.00 0.00 34 1008.4
20260505225043 78 170 3.0 9.0 0.00 0.00 0.00 34 1008.4
20260505224556 78 211 3.0 9.0 0.00 0.00 0.00 34 1008.4
20260505224042 78 169 2.0 6.0 0.00 0.00 0.00 35 1008.5
20260505223542 78 159 2.0 7.0 0.00 0.00 0.00 35 1008.4
20260505223059 77 205 2.0 10.0 0.00 0.00 0.00 35 1008.5
20260505222542 77 178 3.0 10.0 0.00 0.00 0.00 35 1008.6
20260505222045 78 211 2.0 7.0 0.00 0.00 0.00 36 1008.6
20260505221600 78 197 2.0 9.0 0.00 0.00 0.00 34 1008.4
20260505221044 78 145 3.0 9.0 0.00 0.00 0.00 34 1008.6
20260505220547 78 165 2.0 7.0 0.00 0.00 0.00 34 1008.6
20260505220056 78 168 2.0 7.0 0.00 0.00 0.00 35 1008.7
20260505215542 78 191 3.0 7.0 0.00 0.00 0.00 34 1008.5
20260505215045 78 157 3.0 7.0 0.00 0.00 0.00 35 1008.6
20260505214605 78 159 2.0 7.0 0.00 0.00 0.00 36 1008.6
20260505214042 78 137 2.0 7.0 0.00 0.00 0.00 36 1008.6
20260505213542 78 115 3.0 7.0 0.00 0.00 0.00 35 1008.5
20260505213100 78 188 1.0 7.0 0.00 0.00 0.00 37 1008.3
20260505212545 78 180 2.0 11.0 0.00 0.00 0.00 36 1008.5
20260505212042 79 161 4.0 11.0 0.00 0.00 0.00 34 1008.5
20260505211553 79 167 3.0 11.0 0.00 0.00 0.00 35 1008.4
20260505211046 80 178 4.0 9.0 0.00 0.00 0.00 34 1008.3
20260505210541 80 178 3.0 9.0 0.00 0.00 0.00 35 1008.3
20260505210105 80 159 3.0 9.0 0.00 0.00 0.00 35 1008.4
20260505205542 80 146 3.0 7.0 0.00 0.00 0.00 35 1008.4
20260505205041 81 179 2.0 7.0 0.00 0.00 0.00 38 1008.3
20260505204558 81 194 3.0 10.0 0.00 0.00 0.00 36 1008.3
20260505204042 81 178 4.0 10.0 0.00 0.00 0.00 36 1008.3
20260505203541 81 161 4.0 8.0 0.00 0.00 0.00 37 1008.2
20260505203053 81 153 3.0 9.0 0.00 0.00 0.00 37 1008.2
20260505202542 81 191 3.0 10.0 0.00 0.00 0.00 36 1008.2
20260505202051 81 173 3.0 11.0 0.00 0.00 0.00 36 1008.3
20260505201601 81 171 4.0 11.0 0.00 0.00 0.00 36 1008.3
20260505201042 80 175 3.0 8.0 0.00 0.00 0.00 38 1008.2
20260505200545 80 163 2.0 9.0 0.00 0.00 0.00 37 1008.2
20260505200050 80 178 3.0 9.0 0.00 0.00 0.00 36 1008.3
20260505195545 80 196 3.0 10.0 0.00 0.00 0.00 37 1008.3
20260505195046 81 179 2.0 11.0 0.00 0.00 0.00 39 1008.5
20260505194549 81 186 3.0 11.0 0.00 0.00 0.00 35 1008.5
20260505194045 81 180 2.0 10.0 0.00 0.00 0.00 38 1008.6
20260505193548 81 159 4.0 10.0 0.00 0.00 0.00 36 1008.7
20260505193054 81 155 4.0 8.0 0.00 0.00 0.00 38 1008.7
20260505192546 81 192 3.0 7.0 0.00 0.00 0.00 40 1008.8
20260505192044 80 226 3.0 9.0 0.00 0.00 0.00 37 1008.9
20260505191558 81 153 4.0 9.0 0.00 0.00 0.00 38 1008.8
20260505191042 81 159 2.0 7.0 0.00 0.00 0.00 40 1009.0
20260505190541 81 163 3.0 8.0 0.00 0.00 0.00 39 1009.1
20260505190104 81 194 3.0 8.0 0.00 0.00 0.00 38 1009.1
20260505185544 81 152 3.0 7.0 0.00 0.00 0.00 39 1009.3
20260505185046 81 154 3.0 7.0 0.00 0.00 0.00 37 1009.3
20260505184604 81 168 2.0 8.0 0.00 0.00 0.00 38 1009.4
20260505184042 81 0 3.0 9.0 0.00 0.00 0.00 37 1009.4
20260505183545 80 197 3.0 9.0 0.00 0.00 0.00 38 1009.5
20260505183056 80 227 1.0 8.0 0.00 0.00 0.00 41 1009.6
20260505182545 80 169 3.0 8.0 0.00 0.00 0.00 39 1009.7
20260505182045 80 173 2.0 8.0 0.00 0.00 0.00 39 1009.7
20260505181559 80 193 2.0 8.0 0.00 0.00 0.00 39 1009.8
20260505181048 80 165 4.0 8.0 0.00 0.00 0.00 39 1009.9
20260505180544 79 184 3.0 7.0 0.00 0.00 0.00 38 1009.9
20260505180053 79 159 2.0 9.0 0.00 0.00 0.00 41 1010.0
20260505175542 79 194 3.0 13.0 0.00 0.00 0.00 39 1010.2
20260505175042 79 167 3.0 13.0 0.00 0.00 0.00 41 1010.1
20260505174550 79 176 3.0 13.0 0.00 0.00 0.00 40 1010.3
20260505174046 79 147 2.0 8.0 0.00 0.00 0.00 41 1010.3
20260505173546 79 189 1.0 8.0 0.00 0.00 0.00 41 1010.2
20260505173052 79 200 1.0 7.0 0.00 0.00 0.00 41 1010.2
20260505172547 78 188 3.0 7.0 0.00 0.00 0.00 43 1010.3
20260505172045 78 148 2.0 6.0 0.00 0.00 0.00 41 1010.3
20260505171551 79 174 2.0 7.0 0.00 0.00 0.00 40 1010.3
20260505171046 79 160 3.0 7.0 0.00 0.00 0.00 40 1010.4
20260505170545 79 159 3.0 7.0 0.00 0.00 0.00 42 1010.4
20260505170059 79 225 1.0 4.0 0.00 0.00 0.00 43 1010.5
20260505165542 78 200 1.0 7.0 0.00 0.00 0.00 41 1010.6
20260505165045 78 178 3.0 7.0 0.00 0.00 0.00 41 1010.8
20260505164551 78 173 2.0 8.0 0.00 0.00 0.00 41 1010.9
20260505164045 78 167 2.0 8.0 0.00 0.00 0.00 42 1010.9
20260505163544 78 157 2.0 7.0 0.00 0.00 0.00 42 1011.1
20260505163055 77 206 2.0 12.0 0.00 0.00 0.00 42 1011.1
20260505162541 77 248 3.0 12.0 0.00 0.00 0.00 47 1011.1
20260505162045 77 187 2.0 7.0 0.00 0.00 0.00 44 1011.2
20260505161617 77 211 2.0 8.0 0.00 0.00 0.00 42 1011.4
20260505161041 77 202 2.0 9.0 0.00 0.00 0.00 42 1011.4
20260505160547 76 187 3.0 11.0 0.00 0.00 0.00 41 1011.5
20260505153104 75 250 2.0 11.0 0.00 0.00 0.00 43 1011.5
20260505152542 75 221 2.0 11.0 0.00 0.00 0.00 48 1011.5
20260505152048 75 261 2.0 7.0 0.00 0.00 0.00 49 1011.6
20260505151552 74 223 1.0 7.0 0.00 0.00 0.00 49 1011.5
20260505151042 74 259 2.0 7.0 0.00 0.00 0.00 52 1011.5
20260505150549 74 158 2.0 6.0 0.00 0.00 0.00 48 1011.5
20260505150111 73 211 2.0 6.0 0.00 0.00 0.00 50 1011.3
20260505140545 67 0 0.0 3.0 0.00 0.00 0.00 64 1011.5
20260505140107 66 0 0.0 2.0 0.00 0.00 0.00 65 1011.5
20260505124556 57 0 0.0 0.0 0.00 0.00 0.00 81 1012.1
20260505124040 57 0 0.0 0.0 0.00 0.00 0.00 82 1012.1
20260505123544 57 0 0.0 1.0 0.00 0.00 0.00 81 1012.2
20260505123108 56 0 0.0 1.0 0.00 0.00 0.00 81 1012.2
20260505122543 56 0 0.0 1.0 0.00 0.00 0.00 80 1012.2
20260505122043 56 0 0.0 1.0 0.00 0.00 0.00 81 1012.2
20260505121553 56 0 0.0 1.0 0.00 0.00 0.00 82 1012.2
20260505121044 56 0 0.0 1.0 0.00 0.00 0.00 81 1012.2
20260505120543 55 0 0.0 1.0 0.00 0.00 0.00 81 1012.1
20260505120053 55 0 0.0 1.0 0.00 0.00 0.00 82 1012.2
20260505115541 55 0 0.0 1.0 0.00 0.00 0.00 81 1012.1
20260505115042 55 0 0.0 1.0 0.00 0.00 0.00 82 1012.1
20260505114559 55 0 0.0 0.0 0.00 0.00 0.00 82 1012.0
20260505114041 55 0 0.0 0.0 0.00 0.00 0.00 81 1012.1
20260505113541 55 0 0.0 0.0 0.00 0.00 0.00 82 1011.9
20260505113052 55 0 0.0 1.0 0.00 0.00 0.00 81 1011.8
20260505112541 55 0 0.0 1.0 0.00 0.00 0.00 81 1011.7
20260505112042 55 0 0.0 0.0 0.00 0.00 0.00 81 1011.6
20260505111554 55 0 0.0 0.0 0.00 0.00 0.00 81 1011.7
20260505111043 55 0 0.0 0.0 0.00 0.00 0.00 81 1011.6
20260505110541 55 0 0.0 1.0 0.00 0.00 0.00 81 1011.4
20260505102042 55 0 0.0 0.0 0.00 0.00 0.00 80 1011.1
20260505101554 55 0 0.0 0.0 0.00 0.00 0.00 80 1011.0
20260505101046 55 0 0.0 0.0 0.00 0.00 0.00 80 1011.0
20260505100543 55 0 0.0 0.0 0.00 0.00 0.00 80 1011.0
20260505100049 55 0 0.0 0.0 0.00 0.00 0.00 79 1011.0
20260505095543 55 0 0.0 0.0 0.00 0.00 0.00 79 1011.0
20260505095048 55 0 0.0 0.0 0.00 0.00 0.00 79 1011.1
20260505094557 55 0 0.0 0.0 0.00 0.00 0.00 79 1011.0
20260505094045 55 0 0.0 0.0 0.00 0.00 0.00 80 1011.0
20260505093549 55 0 0.0 0.0 0.00 0.00 0.00 79 1011.0
20260505093056 55 0 0.0 0.0 0.00 0.00 0.00 79 1011.0
20260505092547 56 0 0.0 0.0 0.00 0.00 0.00 79 1010.9
20260505092045 56 0 0.0 0.0 0.00 0.00 0.00 79 1010.9
20260505091551 56 0 0.0 0.0 0.00 0.00 0.00 79 1010.9
20260505091045 56 0 0.0 1.0 0.00 0.00 0.00 79 1011.0
20260505090545 55 0 0.0 1.0 0.00 0.00 0.00 79 1011.0
20260505090106 55 0 0.0 1.0 0.00 0.00 0.00 79 1011.0
20260505085543 55 0 0.0 1.0 0.00 0.00 0.00 79 1010.9
20260505085047 56 0 0.0 0.0 0.00 0.00 0.00 79 1010.9
20260505084551 56 0 0.0 0.0 0.00 0.00 0.00 78 1010.9
20260505084046 56 0 0.0 0.0 0.00 0.00 0.00 78 1010.8
20260505083545 56 0 0.0 0.0 0.00 0.00 0.00 77 1010.6
20260505083107 57 0 0.0 0.0 0.00 0.00 0.00 77 1010.6
20260505082545 57 0 0.0 0.0 0.00 0.00 0.00 76 1010.6
20260505082045 57 0 0.0 0.0 0.00 0.00 0.00 76 1010.4
20260505081555 57 0 0.0 0.0 0.00 0.00 0.00 75 1010.5
20260505081046 57 0 0.0 0.0 0.00 0.00 0.00 75 1010.4
20260505080546 57 0 0.0 1.0 0.00 0.00 0.00 75 1010.5
20260505080057 57 0 0.0 1.0 0.00 0.00 0.00 75 1010.6
20260505075545 57 0 0.0 1.0 0.00 0.00 0.00 76 1010.5
20260505075047 57 0 0.0 3.0 0.00 0.00 0.00 75 1010.5
20260505074557 57 0 0.0 3.0 0.00 0.00 0.00 76 1010.4
20260505074049 57 236 0.0 2.0 0.00 0.00 0.00 76 1010.5
20260505073548 57 0 0.0 2.0 0.00 0.00 0.00 76 1010.5
20260505073100 57 0 0.0 1.0 0.00 0.00 0.00 75 1010.5
20260505072546 57 0 0.0 0.0 0.00 0.00 0.00 75 1010.3
20260505072045 57 0 0.0 1.0 0.00 0.00 0.00 75 1010.4
20260505071551 57 0 0.0 1.0 0.00 0.00 0.00 75 1010.4
20260505071045 57 0 0.0 0.0 0.00 0.00 0.00 74 1010.4
20260505070549 57 0 0.0 0.0 0.00 0.00 0.00 74 1010.4
20260505070054 58 0 0.0 0.0 0.00 0.00 0.00 74 1010.4
20260505065545 58 0 0.0 0.0 0.00 0.00 0.00 74 1010.4
20260505065046 58 0 0.0 0.0 0.00 0.00 0.00 74 1010.4
20260505064551 58 0 0.0 0.0 0.00 0.00 0.00 73 1010.4
20260505064047 58 0 0.0 0.0 0.00 0.00 0.00 74 1010.5
20260505063610 58 0 0.0 0.0 0.00 0.00 0.00 73 1010.5
20260505063059 58 0 0.0 0.0 0.00 0.00 0.00 73 1010.5
20260505062546 58 0 0.0 0.0 0.00 0.00 0.00 73 1010.5
20260505062043 58 0 0.0 0.0 0.00 0.00 0.00 72 1010.6
20260505061547 59 0 0.0 0.0 0.00 0.00 0.00 72 1010.7
20260505061044 59 0 0.0 1.0 0.00 0.00 0.00 72 1010.6
20260505060545 59 0 0.0 1.0 0.00 0.00 0.00 72 1010.6
20260505060058 59 0 0.0 0.0 0.00 0.00 0.00 71 1010.6
20260505055545 59 0 0.0 0.0 0.00 0.00 0.00 71 1010.6
20260505055050 59 0 0.0 0.0 0.00 0.00 0.00 71 1010.5
20260505054556 59 0 0.0 1.0 0.00 0.00 0.00 71 1010.6
20260505054046 59 0 0.0 1.0 0.00 0.00 0.00 71 1010.5
20260505053548 59 0 0.0 2.0 0.00 0.00 0.00 71 1010.5
20260505053050 59 0 0.0 2.0 0.00 0.00 0.00 71 1010.5
20260505052545 59 175 0.0 1.0 0.00 0.00 0.00 71 1010.4
20260505052046 59 0 0.0 1.0 0.00 0.00 0.00 71 1010.3
20260505051556 59 0 0.0 2.0 0.00 0.00 0.00 71 1010.5
20260505051046 59 0 0.0 2.0 0.00 0.00 0.00 71 1010.6
20260505050545 59 0 0.0 1.0 0.00 0.00 0.00 70 1010.6
20260505050126 59 0 0.0 1.0 0.00 0.00 0.00 70 1010.6
20260505041603 61 175 0.0 1.0 0.00 0.00 0.00 66 1010.5
20260505041046 62 0 0.0 2.0 0.00 0.00 0.00 65 1010.6
20260505040547 62 0 0.0 2.0 0.00 0.00 0.00 65 1010.6
20260505040058 62 0 0.0 2.0 0.00 0.00 0.00 64 1010.4
20260505035548 62 0 0.0 1.0 0.00 0.00 0.00 64 1010.4
20260505035044 62 0 0.0 2.0 0.00 0.00 0.00 64 1010.4
20260505034549 62 0 0.0 2.0 0.00 0.00 0.00 64 1010.4
20260505034045 62 0 0.0 2.0 0.00 0.00 0.00 64 1010.3
20260505033546 62 0 0.0 2.0 0.00 0.00 0.00 64 1010.2
20260505033050 62 0 0.0 2.0 0.00 0.00 0.00 64 1010.3
20260505032540 62 0 0.0 2.0 0.00 0.00 0.00 64 1010.3
20260505032043 62 0 0.0 2.0 0.00 0.00 0.00 64 1010.4
20260505031553 62 175 0.0 2.0 0.00 0.00 0.00 64 1010.4
20260505031043 62 0 0.0 2.0 0.00 0.00 0.00 63 1010.4
20260505030542 62 0 0.0 2.0 0.00 0.00 0.00 63 1010.4
20260505030052 62 0 0.0 1.0 0.00 0.00 0.00 63 1010.4
20260505025540 62 0 0.0 1.0 0.00 0.00 0.00 63 1010.4
20260505025043 62 0 0.0 1.0 0.00 0.00 0.00 63 1010.5
20260505024552 63 0 0.0 1.0 0.00 0.00 0.00 62 1010.5
20260505024044 63 0 0.0 1.0 0.00 0.00 0.00 62 1010.6
20260505023548 63 0 0.0 1.0 0.00 0.00 0.00 62 1010.5
20260505023053 63 0 0.0 1.0 0.00 0.00 0.00 61 1010.4
20260505022544 64 0 0.0 2.0 0.00 0.00 0.00 60 1010.4
20260505022043 64 0 0.0 2.0 0.00 0.00 0.00 60 1010.4
20260505021554 64 0 0.0 2.0 0.00 0.00 0.00 59 1010.4
20260505021044 64 0 0.0 2.0 0.00 0.00 0.00 59 1010.4
20260505020542 64 0 0.0 2.0 0.00 0.00 0.00 58 1010.3
20260505020049 65 0 0.0 1.0 0.00 0.00 0.00 59 1010.4
20260505015542 65 0 0.0 2.0 0.00 0.00 0.00 57 1010.3
20260505015043 65 0 0.0 2.0 0.00 0.00 0.00 57 1010.3
20260505014605 65 175 0.0 2.0 0.00 0.00 0.00 56 1010.2
20260505014043 65 0 0.0 1.0 0.00 0.00 0.00 56 1010.2
20260505013544 66 0 0.0 2.0 0.00 0.00 0.00 56 1010.1
20260505013051 66 0 0.0 2.0 0.00 0.00 0.00 55 1010.0
20260505012542 66 0 0.0 2.0 0.00 0.00 0.00 54 1010.0
20260505012042 67 175 0.0 1.0 0.00 0.00 0.00 55 1009.9
20260505011604 67 0 0.0 2.0 0.00 0.00 0.00 53 1010.0
20260505011043 67 0 0.0 3.0 0.00 0.00 0.00 52 1010.0
20260505010542 67 175 0.0 3.0 0.00 0.00 0.00 52 1009.8
20260505010058 67 177 0.0 3.0 0.00 0.00 0.00 52 1009.7
20260505005542 68 0 0.0 2.0 0.00 0.00 0.00 52 1009.6
20260505005042 68 0 0.0 2.0 0.00 0.00 0.00 50 1009.5
20260505004551 68 0 0.0 2.0 0.00 0.00 0.00 50 1009.4
20260505004041 68 0 0.0 2.0 0.00 0.00 0.00 50 1009.4
20260505003542 68 0 0.0 2.0 0.00 0.00 0.00 49 1009.3
20260505003053 69 0 0.0 3.0 0.00 0.00 0.00 49 1009.4
20260505002547 69 0 0.0 3.0 0.00 0.00 0.00 48 1009.3
20260505002042 69 177 0.0 3.0 0.00 0.00 0.00 47 1009.2